Weather observations for the past three days for
Spencer Municipal Airport
Imperial (Metric)
Date Time (cdt) Wind (mph) Vis. (mi.) Weather Sky Cond. Temperature (ºF) Relative Humidity Wind Chill (°F) Heat Index (°F) Pressure Precipitation (in)
Air Dwpt 6 hour altimeter (in) sea level (mb) 1 hr 3 hr 6 hr
Max. Min.
04 17:53 NW 24 G 35 10.00 Mostly Cloudy and Breezy BKN100 55.9 27 33% 29.69 1005.5
04 16:53 NW 20 G 37 10.00 Light Rain SCT050 BKN065 OVC100 54 37 53% 29.69 1005.5
04 15:53 NW 24 G 37 10.00 Fair and Breezy CLR 64 30 28% 29.65 1004.0
04 14:53 NW 22 G 37 10.00 Fair and Breezy CLR 66 32 28% 29.64 1003.5
04 13:53 NW 24 G 33 10.00 Fair and Breezy CLR 66.9 30.9 26% 29.63 1003.1
04 12:53 NW 17 G 31 10.00 Fair CLR 66.9 32 68 52 27% 29.61 1002.6
04 11:53 NW 15 G 29 10.00 Fair CLR 66.9 30.9 26% 29.6 1002.2
04 10:53 N 18 G 25 10.00 Fair CLR 64.9 37.9 37% 29.58 1001.6
04 09:53 NW 15 G 28 10.00 Fair CLR 64 41 43% 29.56 1000.9
04 08:53 W 18 10.00 Fair CLR 64.9 39 39% 29.56 1000.6
04 07:53 SW 14 10.00 Fair CLR 57 37 47% 29.53 999.6
04 06:53 SW 9 10.00 Fair CLR 53.1 36 53.1 46.9 52% 29.55 1000.1
04 05:53 SW 12 10.00 Mostly Cloudy BKN100 52 35.1 53% 29.55 1000.4
04 04:53 SW 13 10.00 Fair CLR 52 34 50% 29.57 1000.9
04 03:53 SW 14 10.00 Fair CLR 52 34 50% 29.58 1001.4
04 02:53 SW 13 10.00 Fair CLR 51.1 34 52% 29.61 1002.4
04 01:53 SW 10 10.00 Fair CLR 51.1 34 52% 29.63 1003.2
04 00:53 SW 8 10.00 Fair CLR 48 34 71.1 48 58% 45 29.66 1004.4
03 23:53 SW 7 10.00 Fair CLR 50 32 50% 48 29.67 1004.7
03 22:53 SW 7 10.00 Fair CLR 50 33.1 52% 48 29.7 1005.7
03 21:53 SW 6 10.00 Fair CLR 54 30.9 42% 29.73 1006.5
03 20:53 W 9 10.00 Fair CLR 55 30.9 40% 29.73 1006.7
03 19:53 W 9 10.00 Fair CLR 66 30.9 27% 29.73 1006.5
03 18:53 W 14 10.00 Fair CLR 70 34 73 68 27% 29.73 1006.7
03 17:53 W 13 G 25 10.00 Fair CLR 72 28.9 20% 29.75 1007.1
03 16:53 NW 15 G 23 10.00 Fair CLR 73 30.9 21% 29.76 1007.3
03 15:53 NW 17 G 25 10.00 Fair CLR 72 32 23% 29.78 1007.9
03 14:53 N 21 G 31 10.00 Fair and Breezy CLR 71.1 30.9 23% 29.8 1008.7
03 13:53 NW 23 G 31 10.00 Fair and Breezy CLR 70 33.1 26% 29.81 1009.1
03 12:53 N 18 G 32 10.00 Fair CLR 68 34 69.1 46 28% 29.83 1009.7
03 11:53 N 20 G 37 10.00 Fair CLR 66.9 33.1 29% 29.83 1009.9
03 10:53 N 25 G 32 10.00 Fair and Breezy CLR 64.9 35.1 33% 29.83 1009.8
03 09:53 NW 23 G 32 10.00 Fair and Breezy CLR 63 35.1 35% 29.82 1009.6
03 08:53 N 21 G 28 10.00 Fair and Breezy CLR 59 35.1 41% 29.81 1009.4
03 07:53 NW 16 G 23 10.00 Fair CLR 55 35.1 47% 29.8 1008.9
03 06:53 NW 9 10.00 Fair CLR 46 35.1 59 44.1 66% 42 29.77 1008.1
03 05:53 W 10 10.00 Fair CLR 46.9 32 56% 43 29.75 1007.4
03 04:53 SW 13 10.00 Fair CLR 50 30.9 48% 46 29.75 1007.2
03 03:53 SW 16 10.00 Fair CLR 54 28.9 38% 29.75 1007.2
03 02:53 SW 22 G 33 10.00 Fair and Breezy CLR 55.9 28.9 36% 29.74 1007.0
03 01:53 SW 20 G 30 10.00 A Few Clouds FEW120 57 28 33% 29.77 1008.0
03 00:53 SW 21 G 28 10.00 Mostly Cloudy and Breezy BKN100 55.9 28 66 54 34% 29.81 1009.3
02 23:53 S 13 10.00 Partly Cloudy SCT110 55 28.9 37% 29.81 1009.5
02 21:53 S 12 10.00 A Few Clouds FEW120 55.9 28.9 36% 29.86 1011.4
02 20:53 S 9 10.00 Partly Cloudy SCT120 57 28.9 34% 29.88 1012.0
02 19:53 SW 9 10.00 Partly Cloudy SCT120 62.1 27 26% 29.89 1012.6
02 18:53 SW 16 G 25 10.00 Mostly Cloudy BKN110 66 26.1 66.9 60.1 22% 29.91 1013.3
02 17:53 W 14 10.00 Fair CLR 66 28 24% 29.94 1014.4
02 16:53 SW 14 G 22 10.00 Fair CLR 66.9 28 23% 29.95 1014.7
02 15:53 W 13 G 21 10.00 Fair CLR 66 28 24% 29.98 1015.8
02 14:53 SW 13 G 25 10.00 Fair CLR 64.9 28.9 26% 30.01 1016.9
02 13:53 W 12 10.00 Fair CLR 63 28.9 28% 30.04 1017.9
02 12:53 W 10 G 18 10.00 Fair CLR 60.1 27 60.1 27 28% 30.07 1019.1
02 11:53 W 12 G 23 10.00 Fair CLR 57.9 26.1 29% 30.1 1019.9
02 10:53 W 8 10.00 Fair CLR 55 24.1 30% 30.11 1020.4
02 09:53 SW 12 10.00 Fair CLR 53.1 25 34% 30.12 1020.6
02 08:53 SW 8 10.00 Fair CLR 48 30.9 52% 45 30.13 1021.2
02 07:53 W 3 10.00 Fair CLR 37.9 30.9 76% 30.14 1021.3
02 06:53 W 3 10.00 Fair CLR 27 25 30 25 92% 30.14 1021.5
02 05:53 Calm 10.00 Fair CLR 27 27 100% 30.13 1021.5
02 04:53 Calm 10.00 Fair CLR 27 26.1 96% 30.13 1021.3
02 03:53 Calm 10.00 Fair CLR 27 26.1 96% 30.13 1021.2
02 02:53 Calm 10.00 Fair CLR 27 26.1 96% 30.12 1021.2
02 01:53 Calm 10.00 Fair CLR 28 26.1 92% 30.13 1021.4
02 00:53 W 3 10.00 Fair CLR 30 27 52 28.9 88% 30.14 1021.6
01 23:53 W 3 10.00 Fair CLR 30.9 25 79% 30.13 1021.3
01 22:53 Calm 10.00 Fair CLR 35.1 27 72% 30.13 1021.2
01 21:53 N 6 10.00 Fair CLR 39 26.1 60% 35 30.12 1021.0
01 20:53 N 8 10.00 Fair CLR 43 26.1 51% 39 30.11 1020.4
01 19:53 N 8 10.00 A Few Clouds FEW070 48.9 24.1 38% 46 30.09 1019.8
01 18:53 NW 12 G 23 10.00 Partly Cloudy SCT070 52 25 53.1 48 35% 30.08 1019.6
Date Time (cdt) Wind (mph) Vis. (mi.) Weather Sky Cond. Air Dwpt Max. Min. Relative Humidity Wind Chill (°F) Heat Index (°F) altimeter (in) sea level (mb) 1 hr 3 hr 6 hr
6 hour
Temperature (ºF) Pressure Precipitation (in)